Regional Weather Roundup
Issued by NWS Jackson, KY

Home | Current Version | Previous Version | Graphics & Text | Print | Product List | Glossary On
Versions: 1 2 3 4 5 6 7 8 9 10 11 12 13 14 15 16 17 18 19 20 21 22 23 24 25 26 27 28 29 30 31 32 33 34 35 36 37 38 39 40 41 42 43 44 45 46 47 48 49 50
000
ASUS43 KJKL 181605
RWRJKL

EAST KENTUCKY HOURLY WEATHER ROUNDUP
NATIONAL WEATHER SERVICE JACKSON KY
1200 PM EDT THU SEP 18 2014

NOTE: "FAIR" INDICATES FEW OR NO CLOUDS BELOW 12,000 FEET WITH
NO SIGNIFICANT WEATHER AND/OR OBSTRUCTIONS TO VISIBILITY.

* THESE REPORTS ARE NOT UNDER NWS QUALITY CONTROL AND MAY NOT
  REPORT WEATHER SUCH AS PRECIPITATION AND FOG.

KYZ079-080-083-085-087-088-110-112-115-119-120-181700
...EASTERN KENTUCKY...

CITY           SKY/WX    TMP DP  RH WIND       PRES   REMARKS
JACKSON        MOSUNNY   66  53  63 CALM      30.08R
LONDON         MOSUNNY   71  54  54 NE8       30.08R
MONTICELLO*    MOSUNNY   73  57  57 E8        30.08R
WILLIAMSBURG*  SUNNY     68  57  68 E5        30.07
MIDDLESBORO*   CLOUDY    69  58  68 CALM      30.07S
HARLAN APT*    PTSUNNY   68  54  60 MISG      30.07S
BLACK MTN*       N/A     57  52  82 N3          N/A
PIKEVILLE APT* PTSUNNY   61  59  94 CALM      30.09R
BIG SANDY*     MOSUNNY   64  58  81 CALM      30.08S
MOREHEAD APT*  MOSUNNY   68  52  56 NE8       30.10F
$$

KYZ035-036-041-042-044-050-067-078-099-181700
...CENTRAL KENTUCKY...

CITY           SKY/WX    TMP DP  RH WIND       PRES   REMARKS
MT STERLING*   MOSUNNY   68  52  56 E3        30.10S
FLEMING/MASON* SUNNY     66  51  57 E7        30.10S
DANVILLE*      SUNNY     68  54  60 E5        30.09S
RICHMOND*      CLOUDY    68  52  56 NE3       30.08S
LEXINGTON      PTSUNNY   70  52  52 E9        30.09R
FRANKFORT      SUNNY     67  51  56 E8        30.08S
$$

KYZ091>093-OHZ055-061-077-WVZ005-015-034-035-042-181700
...SOUTHERN OHIO/WEST VIRGINIA...

CITY           SKY/WX    TMP DP  RH WIND       PRES   REMARKS
COVINGTON      MOSUNNY   67  47  48 NE7       30.10S
COLUMBUS       MOSUNNY   70  43  37 NE6       30.11R
DAYTON         MOSUNNY   68  48  48 NE9       30.13S
WILMINGTON     MOSUNNY   65  48  54 E8        30.11S
HUNTINGTON     SUNNY     68  54  60 N7        30.07S
CHARLESTON     MOSUNNY   67  58  72 N5        30.07R
PINEVILLE*     PTSUNNY   68  60  76 MISG      30.12S
BECKLEY        PTSUNNY   65  49  56 N5        30.09S
BLUEFIELD      PTSUNNY   65  51  60 CALM      30.11R
$$

VAZ002-007-008-TNZ017-027-036-066-071-181700
...SOUTHWEST VIRGINIA/EAST TENNESSEE...

CITY           SKY/WX    TMP DP  RH WIND       PRES   REMARKS
WISE*          CLOUDY    61  55  82 N5        30.12R
JONESVILLE*    MOSUNNY   66  55  68 CALM      30.09R
ABINGDON*      CLOUDY    66  58  77 SW5       30.08S
BRISTOL        PTSUNNY   68  56  65 S3        30.06S
KNOXVILLE      PTSUNNY   74  57  55 E5        30.02F
OAK RIDGE      MOSUNNY   73  54  51 CALM      30.05F
CROSSVILLE     PTSUNNY   71  52  50 VRB3      30.06F
NASHVILLE      PTSUNNY   72  57  59 VRB3      30.04S
$$

...KEY TO REMARKS...
VSB - VISIBILITY IN MILES
WCI - WIND CHILL INDEX
HX  - HEAT INDEX

$$


USA.gov is the U.S. government's official web portal to all federal, state and local government web resources and services.